Regional Weather Roundup
Issued by NWS Little Rock, AR

Home | Current Version | Previous Version | Text Only | Print | Product List | Glossary On
Versions: 1 2 3 4 5 6 7 8 9 10 11 12 13 14 15 16 17 18 19 20 21 22 23 24 25 26 27 28 29 30 31 32
000
ASUS44 KLZK 230205
RWRLZK

WEATHER ROUNDUP FOR ARKANSAS
NATIONAL WEATHER SERVICE LITTLE ROCK AR
900 PM CDT WED MAR 22 2017

NOTE: "FAIR" INDICATES FEW OR NO CLOUDS BELOW 12,000 FEET WITH NO
SIGNIFICANT WEATHER AND/OR OBSTRUCTIONS TO VISIBILITY.

ARZ001-003-010-029-230300-
NORTHWEST ARKANSAS

CITY           SKY/WX    TMP DP  RH WIND       PRES   REMARKS
FAYETTEVILLE   CLOUDY    57  45  64 SE7       30.17R
FORT SMITH     CLEAR     59  43  55 E12       30.16S
HARRISON       CLOUDY    53  36  52 SE14      30.23R
BENTONVILLE    MOCLDY    55  41  58 SE12      30.18R
ROGERS         CLOUDY    53  42  66 E13       30.18R
SILOAM SPGS    CLOUDY    55  41  58 E6        30.17R
HIGHFILL       CLOUDY    55  42  61 E7        30.17R
SPRINGDALE     CLOUDY    54  43  66 E12       30.18S
$$

ARZ004-005-016-230300-
NORTH CENTRAL ARKANSAS

CITY           SKY/WX    TMP DP  RH WIND       PRES   REMARKS
BATESVILLE     CLOUDY    54  36  50 E9        30.30R
FLIPPIN        CLOUDY    54  28  37 SE9       30.24R
MTN HOME       CLOUDY    53  31  42 SE12      30.25R
$$

ARZ040-041-230300-
WEST CENTRAL ARKANSAS

CITY           SKY/WX    TMP DP  RH WIND       PRES   REMARKS
MENA           CLEAR     61  54  77 E6        30.17S
MOUNT IDA      CLEAR     59  47  64 E5        30.17S
$$

ARZ009-017-025-026-028-230300-
NORTHEAST ARKANSAS

CITY           SKY/WX    TMP DP  RH WIND       PRES   REMARKS
CORNING        FAIR      50  36  57 NE8       30.33R
JONESBORO      CLEAR     50  35  56 NE10      30.29R
NEWPORT        MOCLDY    51  42  71 NE12      30.29
WALNUT RIDGE   CLOUDY    50  37  62 NE9       30.31R
BLYTHEVILLE    CLEAR     50  36  58 NE10      30.30R
$$

ARZ022-023-033-042-044-230300-
CENTRAL ARKANSAS

CITY           SKY/WX    TMP DP  RH WIND       PRES   REMARKS
LITTLE ROCK    PTCLDY    54  44  69 NE10      30.26R
N LITTLE ROCK    N/A     54  43  65 E9        30.27R
CONWAY           N/A     55  37  50 E12       30.25R
SEARCY         CLOUDY    55  38  52 NE9       30.29R
HOT SPRINGS    CLEAR     59  47  64 E8        30.22R
RUSSELLVILLE   MOCLDY    56  41  57 E5        30.24R
CLINTON        CLOUDY    54  41  62 CALM      30.28R
$$

ARZ036-230300-
EAST ARKANSAS

CITY           SKY/WX    TMP DP  RH WIND       PRES   REMARKS
WEST MEMPHIS   PTCLDY    54  35  48 NE8       30.26R
$$

ARZ050-053-066-070-073-230300-
SOUTHWEST ARKANSAS

CITY           SKY/WX    TMP DP  RH WIND       PRES   REMARKS
ARKADELPHIA    FAIR      59  50  72 NE5       30.21R
CAMDEN         CLEAR     59  48  67 NE3       30.19S
TEXARKANA      CLEAR     63  52  67 E9        30.16R
EL DORADO      CLEAR     62  52  69 E6        30.18R
DE QUEEN       CLEAR     64  53  67 E13       30.13R
$$

ARZ056-057-069-230300-
SOUTHEAST ARKANSAS

CITY           SKY/WX    TMP DP  RH WIND       PRES   REMARKS
PINE BLUFF     CLEAR     58  45  62 NE9       30.23S
STUTTGART      CLEAR     55  37  50 NE9       30.26R
MONTICELLO     CLEAR     59  50  72 NE7       30.21R

$$






USA.gov is the U.S. government's official web portal to all federal, state and local government web resources and services.